Stations météo

réclame
Mon MeteoGroup
Glasgow/Bishopton, Grande-Bretagne (3134): Température de l'air & dewpoint: 17.04.2018 02:00:00 - 23.04.2018 02:00:00 (BST)Glasgow/Bishopton, Grande-Bretagne (3134): Température de l'air -20cm & Température de l'air -100cm: 17.04.2018 02:00:00 - 23.04.2018 02:00:00 (BST)Glasgow/Bishopton, Grande-Bretagne (3134): Vitesse du vent & gusts: 17.04.2018 02:00:00 - 23.04.2018 02:00:00 (BST)Glasgow/Bishopton, Grande-Bretagne (3134): Direction du vent: 17.04.2018 02:00:00 - 23.04.2018 02:00:00 (BST)Glasgow/Bishopton, Grande-Bretagne (3134): reduced air pressure: 17.04.2018 02:00:00 - 23.04.2018 02:00:00 (BST)Glasgow/Bishopton, Grande-Bretagne (3134): visibility: 17.04.2018 02:00:00 - 23.04.2018 02:00:00 (BST)Glasgow/Bishopton, Grande-Bretagne (3134): Ensoleillement: 17.04.2018 02:00:00 - 23.04.2018 02:00:00 (BST)Glasgow/Bishopton, Grande-Bretagne (3134): Quantités de précipitations: 17.04.2018 02:00:00 - 23.04.2018 02:00:00 (BST)
Date & Time tt [°C] td [°C] tt -20cm [°C] tt -100cm [°C] ff [km/h] ff [knt] fx [km/h] fx [knt] dd ppp [hPa] vv [km] sd [min] rr [mm]
23.04.2018 02:00:00 8,6 7,2 - - 26 14 46 25 W 1003,9 5 0 0,0
23.04.2018 01:00:00 8,5 7,1 - - 28 15 - - W 1003,7 20 - 0,2
23.04.2018 00:00:00 8,6 6,9 - - 24 13 - - WSW 1003,5 23 0 0,0
22.04.2018 23:00:00 8,4 6,8 - - 26 14 - - W 1003,3 19 0 0,2
22.04.2018 22:00:00 8,6 7,1 - - 28 15 46 25 W 1003,2 7 0 0,0
22.04.2018 21:00:00 8,8 7,9 - - 16 9 - - WSW 1002,7 45 0 0,8
22.04.2018 20:00:00 9,1 7,6 - - 18 10 - - SW 1002,4 10 0 0,0
22.04.2018 19:00:00 9,5 7,3 - - 18 10 - - SW 1002,6 45 0 0,0
22.04.2018 18:00:00 9,6 8,0 - - 15 8 - - SW 1002,8 35 0 0,8
22.04.2018 17:00:00 11,5 5,5 - - 21 11 - - WSW 1002,7 35 30 0,0
22.04.2018 16:00:00 12,2 5,4 - - 24 13 - - W 1002,8 30 36 0,0
22.04.2018 15:00:00 11,2 6,7 - - 21 11 52 28 W 1003,2 22 42 0,0
22.04.2018 14:00:00 10,0 6,7 - - 28 15 - - W 1003,0 30 0 0,0
22.04.2018 13:00:00 9,8 8,1 - - 21 11 - - SW 1002,8 35 0 0,2
22.04.2018 12:00:00 9,2 8,4 - - 16 9 - - SSW 1003,0 15 0 0,2
22.04.2018 11:00:00 8,6 8,1 - - 13 7 - - SSW 1003,1 11 0 0,6
22.04.2018 10:00:00 8,6 7,6 9,7 7,7 16 9 - - SW 1002,9 17 0 0,4
22.04.2018 09:00:00 8,7 7,1 - - 13 7 - - SSW 1004,0 6 0 0,2
22.04.2018 08:00:00 9,5 6,0 - - 21 11 - - SW 1003,6 17 0 0,0
22.04.2018 07:00:00 8,9 5,6 - - 11 6 - - SSW 1003,4 21 0 0,0
22.04.2018 06:00:00 6,5 3,9 - - 9 5 - - SSW 1003,9 23 0 0,0
22.04.2018 05:00:00 6,8 3,0 - - 5 3 - - S 1004,4 40 0 0,0
22.04.2018 04:00:00 6,6 3,1 - - 2 1 - - WNW 1005,4 50 0 0,0
22.04.2018 03:00:00 7,4 3,2 - - 2 1 - - ESE 1006,1 50 0 0,0
22.04.2018 02:00:00 7,6 3,9 - - 9 5 - - NW 1007,0 40 0 0,0
22.04.2018 01:00:00 8,5 2,4 - - 2 1 - - SSW 1007,8 50 - 0,0
22.04.2018 00:00:00 9,2 2,9 - - 2 1 - - SE 1008,6 45 0 0,0
21.04.2018 23:00:00 9,6 3,8 - - 2 1 - - NE 1009,1 40 0 0,0
21.04.2018 22:00:00 10,0 4,6 - - 5 3 - - SSW 1009,9 50 0 0,0
21.04.2018 21:00:00 12,5 5,0 - - 5 3 - - SSW 1010,5 50 12 0,0
21.04.2018 20:00:00 14,6 6,0 - - 8 4 - - SW 1011,3 50 48 0,0
21.04.2018 19:00:00 17,0 5,8 - - 9 5 - - SSW 1011,8 22 60 0,0
21.04.2018 18:00:00 17,5 5,4 - - 16 9 - - SW 1012,9 30 60 0,0
21.04.2018 17:00:00 18,0 5,6 - - 16 9 - - S 1013,6 17 60 0,0
21.04.2018 16:00:00 18,1 7,6 - - 15 8 - - SSE 1014,8 45 48 0,0
21.04.2018 15:00:00 16,8 8,7 - - 13 7 - - S 1016,4 25 48 0,0
21.04.2018 14:00:00 17,1 8,4 - - 16 9 - - SW 1017,5 21 42 0,0
21.04.2018 13:00:00 16,4 7,7 - - 18 10 - - SW 1018,3 21 54 0,0
21.04.2018 12:00:00 14,6 6,7 - - 13 7 - - SW 1019,2 40 54 0,0
21.04.2018 11:00:00 12,6 6,9 - - 11 6 - - S 1020,2 40 60 0,0
21.04.2018 10:00:00 11,9 7,2 9,2 7,5 9 5 - - SE 1020,6 26 60 0,0
21.04.2018 09:00:00 10,0 7,2 - - 8 4 - - SSE 1021,2 15 60 0,0
21.04.2018 08:00:00 8,3 6,7 - - 4 2 - - ESE 1021,4 27 54 0,0
21.04.2018 07:00:00 5,4 5,1 - - 2 1 - - ENE 1021,8 26 0 0,0
21.04.2018 06:00:00 4,4 3,8 - - 2 1 - - SE 1022,0 16 0 0,0
21.04.2018 05:00:00 5,4 4,3 - - 2 1 - - SW 1022,1 26 0 0,0
21.04.2018 04:00:00 6,2 5,3 - - 4 2 - - SW 1022,6 30 0 0,0
21.04.2018 03:00:00 6,5 4,8 - - 2 1 - - SW 1023,1 35 0 0,0
21.04.2018 02:00:00 7,4 5,5 - - 2 1 - - W 1023,5 35 0 0,0
21.04.2018 01:00:00 7,6 5,3 - - 8 4 - - WSW 1023,7 45 - 0,0
21.04.2018 00:00:00 7,7 5,5 - - 8 4 - - W 1023,8 40 0 0,0
20.04.2018 23:00:00 7,4 5,2 - - 4 2 - - SW 1023,8 45 0 0,0
20.04.2018 22:00:00 7,8 4,8 - - 4 2 - - W 1023,6 35 0 0,0
20.04.2018 21:00:00 9,4 5,9 - - 9 5 - - NW 1023,4 45 0 0,0
20.04.2018 20:00:00 11,4 5,7 - - 13 7 - - WNW 1023,0 45 18 0,0
20.04.2018 19:00:00 12,2 6,2 - - 13 7 - - W 1023,0 26 18 0,0
20.04.2018 18:00:00 13,9 6,3 - - 18 10 - - W 1022,8 25 24 0,0
20.04.2018 17:00:00 13,9 7,2 - - 18 10 - - W 1022,9 30 24 0,0
20.04.2018 16:00:00 13,3 6,3 - - 22 12 - - WSW 1022,8 40 6 0,0
20.04.2018 15:00:00 13,4 6,4 - - 21 11 - - W 1023,0 40 6 0,0
20.04.2018 14:00:00 13,6 6,5 - - 21 11 - - W 1023,0 30 12 0,0
20.04.2018 13:00:00 12,8 6,1 - - 22 12 - - W 1023,0 30 42 0,0
20.04.2018 12:00:00 13,9 8,2 - - 18 10 - - WSW 1022,7 28 30 0,0
20.04.2018 11:00:00 13,1 6,6 - - 18 10 - - W 1022,6 26 48 0,0
20.04.2018 10:00:00 12,2 7,8 9,0 7,4 15 8 - - WSW 1022,5 26 30 0,0
20.04.2018 09:00:00 10,2 7,8 - - 9 5 - - W 1022,7 18 0 0,0
20.04.2018 08:00:00 9,5 8,4 - - 13 7 - - SW 1022,4 9 0 0,0
20.04.2018 07:00:00 9,1 8,5 - - 8 4 - - WSW 1022,3 8 0 0,0
20.04.2018 06:00:00 9,0 8,6 - - 9 5 - - SSW 1021,9 9 0 0,0
20.04.2018 05:00:00 8,4 8,1 - - 4 2 - - SE 1022,2 6 0 0,0
20.04.2018 04:00:00 8,8 8,4 - - 2 1 - - W 1022,2 8 0 0,0
20.04.2018 03:00:00 8,8 8,4 - - 2 1 - - SSE 1022,3 8 0 0,0
20.04.2018 02:00:00 8,9 8,4 - - 2 1 - - SW 1022,7 11 0 0,0
20.04.2018 01:00:00 9,0 8,4 - - 2 1 - - ESE 1023,0 10 - 0,0
20.04.2018 00:00:00 9,8 8,7 - - 4 2 - - E 1023,2 19 0 0,0
19.04.2018 23:00:00 9,9 8,8 - - 2 1 - - W 1023,1 35 0 0,0
19.04.2018 22:00:00 10,7 8,9 - - 2 1 - - SSE 1023,2 45 0 0,0
19.04.2018 21:00:00 11,6 9,1 - - 4 2 - - NW 1022,9 50 0 0,0
19.04.2018 20:00:00 13,4 9,5 - - 11 6 - - WSW 1022,4 50 18 0,0
19.04.2018 19:00:00 15,2 9,6 - - 15 8 - - WSW 1022,3 50 60 0,0
19.04.2018 18:00:00 15,9 10,8 - - 15 8 - - SW 1022,3 30 54 0,0
19.04.2018 17:00:00 16,0 11,0 - - 15 8 - - SW 1022,2 40 60 0,0
19.04.2018 16:00:00 15,1 11,0 - - 21 11 - - SSW 1022,1 27 30 0,0
19.04.2018 15:00:00 13,6 10,8 - - 18 10 - - SW 1022,5 23 0 0,0
19.04.2018 14:00:00 12,4 10,3 - - 16 9 - - SSW 1022,4 21 0 0,0
19.04.2018 13:00:00 12,0 10,0 - - 13 7 - - SW 1022,1 22 0 0,0
19.04.2018 12:00:00 12,3 10,1 - - 13 7 - - SW 1021,9 23 0 0,0
19.04.2018 11:00:00 12,2 10,0 - - 11 6 - - SSW 1021,4 24 0 0,0
19.04.2018 10:00:00 11,7 9,9 8,9 7,2 8 4 - - S 1021,0 17 0 0,0
19.04.2018 09:00:00 11,6 9,8 - - 5 3 - - S 1020,4 17 0 -
19.04.2018 08:00:00 11,4 9,5 - - 8 4 - - SSE 1020,1 16 0 -
19.04.2018 07:00:00 11,6 9,5 - - 13 7 - - S 1019,4 18 0 -
19.04.2018 06:00:00 11,1 8,9 - - 9 5 - - SE 1019,4 17 0 -
19.04.2018 05:00:00 12,3 8,8 - - 8 4 - - S 1019,2 21 0 -
19.04.2018 04:00:00 12,2 8,8 - - 11 6 - - SE 1019,0 25 0 -
19.04.2018 03:00:00 12,8 9,3 - - 13 7 - - SE 1019,1 25 0 -
19.04.2018 02:00:00 13,4 9,3 - - 11 6 - - SE 1019,4 24 0 0,0
19.04.2018 01:00:00 13,8 9,1 - - 13 7 - - SSE 1019,2 30 - 0,0
19.04.2018 00:00:00 14,7 11,0 - - 8 4 - - SSE 1019,3 35 0 0,0
18.04.2018 23:00:00 15,2 11,0 - - 15 8 - - SSE 1018,9 30 0 0,0
18.04.2018 22:00:00 15,1 10,8 - - 21 11 - - SE 1018,9 45 0 0,0
18.04.2018 21:00:00 15,5 11,4 - - 28 15 - - SE 1018,7 30 0 0,0
18.04.2018 20:00:00 15,0 10,2 - - 22 12 - - SSE 1019,0 30 6 0,0
18.04.2018 19:00:00 15,7 10,2 - - 21 11 - - SSE 1019,0 40 0 0,0
18.04.2018 18:00:00 15,8 9,9 - - 24 13 - - S 1019,5 40 0 0,0
18.04.2018 17:00:00 16,2 10,3 - - 21 11 - - S 1019,9 35 6 0,0
18.04.2018 16:00:00 14,9 11,6 - - 18 10 - - S 1020,3 18 0 0,0
18.04.2018 15:00:00 12,9 11,1 - - 21 11 - - S 1020,3 30 0 0,0
18.04.2018 14:00:00 13,1 10,8 - - 16 9 - - S 1021,1 23 0 0,0
18.04.2018 13:00:00 12,0 10,5 - - 15 8 - - S 1020,8 28 0 0,0
18.04.2018 12:00:00 11,8 10,2 - - 11 6 - - S 1020,5 40 0 0,0
18.04.2018 11:00:00 11,7 10,0 - - 9 5 - - SSW 1019,6 50 0 0,0
18.04.2018 10:00:00 11,9 10,0 8,7 7,0 16 9 - - S 1018,7 50 0 0,0
18.04.2018 09:00:00 11,0 9,7 - - 4 2 - - ESE 1018,5 50 0 0,0
18.04.2018 08:00:00 11,0 9,3 - - 15 8 - - SE 1017,9 18 0 0,2
18.04.2018 07:00:00 10,6 8,8 - - 13 7 - - E 1017,1 29 0 0,0
18.04.2018 06:00:00 10,1 8,6 - - 11 6 - - SE 1016,7 11 0 0,0
18.04.2018 05:00:00 10,2 8,5 - - 9 5 - - S 1016,5 14 0 0,0
18.04.2018 04:00:00 10,3 8,4 - - 16 9 - - SSW 1016,3 9 0 0,0
18.04.2018 03:00:00 10,4 8,2 - - 22 12 - - SSW 1015,5 11 0 0,0
18.04.2018 02:00:00 10,5 8,2 - - 13 7 - - S 1015,2 10 0 0,0
18.04.2018 01:00:00 10,5 7,9 - - 11 6 - - SSW 1014,3 10 - 0,0
18.04.2018 00:00:00 10,5 8,0 - - 22 12 - - SSW 1013,8 10 0 0,0
17.04.2018 23:00:00 10,8 8,1 - - 22 12 - - SSW 1012,7 10 0 0,0
17.04.2018 22:00:00 10,9 8,2 - - 21 11 46 25 SSW 1011,5 10 0 0,0
17.04.2018 21:00:00 11,4 8,4 - - 22 12 - - S 1010,6 11 0 0,0
17.04.2018 20:00:00 12,0 8,5 - - 26 14 46 25 SSW 1009,5 11 0 0,0
17.04.2018 19:00:00 12,9 8,6 - - 28 15 55 30 SSW 1008,2 12 24 0,0
17.04.2018 18:00:00 14,4 8,5 - - 31 17 54 29 SSW 1007,1 12 54 0,0
17.04.2018 17:00:00 14,2 9,0 - - 31 17 55 30 SSW 1006,4 10 24 0,0
17.04.2018 16:00:00 14,0 8,8 - - 29 16 61 33 S 1005,9 15 30 0,0
17.04.2018 15:00:00 14,2 8,8 - - 34 18 59 32 SSW 1005,6 14 18 0,0
17.04.2018 14:00:00 14,6 9,4 - - 28 15 57 31 SSW 1005,0 14 36 0,0
17.04.2018 13:00:00 12,9 9,1 - - 37 20 61 33 SSW 1004,4 27 42 0,0
17.04.2018 12:00:00 13,2 9,6 - - 34 18 59 32 SSW 1003,7 14 48 0,0
17.04.2018 11:00:00 12,7 9,6 - - 35 19 65 35 SSW 1003,2 23 42 0,0
17.04.2018 10:00:00 11,2 9,0 8,0 6,7 31 17 55 30 SSW 1003,1 17 0 0,0
17.04.2018 09:00:00 10,7 8,9 - - 31 17 65 35 S 1002,5 40 0 0,4
17.04.2018 08:00:00 10,2 8,8 - - 29 16 50 27 S 1001,7 10 0 2,2
17.04.2018 07:00:00 9,6 8,3 - - 24 13 52 28 S 1001,4 11 0 0,8
17.04.2018 06:00:00 9,3 7,7 - - 29 16 52 28 SSE 1001,5 35 0 0,4
17.04.2018 05:00:00 9,3 7,1 - - 29 16 67 36 SSE 1002,0 17 0 0,2
17.04.2018 04:00:00 9,8 6,2 - - 31 17 50 27 SSE 1002,9 27 0 0,0
17.04.2018 03:00:00 9,8 6,0 - - 28 15 54 29 SSE 1003,9 28 0 0,0
17.04.2018 02:00:00 9,6 5,9 - - 29 16 46 25 SSE 1004,9 30 0 0,0

tt = Température de l'air
td = dewpoint
tt -20cm = Température de l'air -20cm
tt -100cm = Température de l'air -100cm
ff = Vitesse du vent
fx = gusts
dd = Direction du vent
ppp = reduced air pressure
vv = visibility
sd = Ensoleillement
rr = Quantités de précipitations

stations d'obs. à proximité